Regional Weather Roundup
Issued by NWS

Home | Current Version | Previous Version | Graphics & Text | Print | Product List | Glossary On
Versions: 1 2 3 4 5 6 7 8 9 10 11 12 13 14 15 16 17 18 19 20 21 22 23 24 25 26 27 28 29 30 31 32 33 34 35 36 37 38 39 40 41 42 43 44 45 46 47 48 49 50
000
ASUS44 KMEG 310400
RWRTN
TENNESSEE HOURLY STATE WEATHER ROUNDUP
NATIONAL WEATHER SERVICE MEMPHIS TN
1100 PM CDT MON MAY 30 2016

TNZ002-004-019-021-049-052-054-088>092-310500-
WEST TENNESSEE

CITY           SKY/WX    TMP DP  RH WIND       PRES   REMARKS
MEMPHIS INTL   CLOUDY    79  65  62 CALM      29.97S
NWS MEMPHIS      N/A     74 N/A N/A MISG        N/A
JACKSON        PTCLDY    70  67  90 CALM      29.98S
DYERSBURG      CLOUDY    73  66  78 CALM      29.97F
UNION CITY     CLEAR     72  70  94 CALM      29.97S
PARIS          CLEAR     64  61  88 CALM      30.00S
LEXINGTON      CLEAR     68  64  88 CALM      29.98S
$$

TNZ008-025-027-028-033-062-065-066-310500-
NORTH MIDDLE TENNESSEE

CITY           SKY/WX    TMP DP  RH WIND       PRES   REMARKS
NASHVILLE      CLEAR     73  59  61 CALM      29.99S
CLARKSVILLE    CLEAR     70  62  76 CALM      29.99R
COOKEVILLE     CLEAR     63  61  94 CALM      30.00S
CROSSVILLE     CLEAR     67  58  72 CALM      30.04F
$$

TNZ061-075-076-078-094-096-097-310500-
SOUTH MIDDLE TENNESSEE

CITY           SKY/WX    TMP DP  RH WIND       PRES   REMARKS
TULLAHOMA      CLEAR     64  63  94 CALM      30.02S
WINCHESTER     CLEAR     64  59  82 CALM      30.01S
SHELBYVILLE    CLEAR     64  61  88 CALM      30.01S
$$

TNZ017-018-042-046-047-310500-
NORTHEAST TENNESSEE

CITY           SKY/WX    TMP DP  RH WIND       PRES   REMARKS
TRI CITIES     CLEAR     64  60  87 CALM      30.02F
$$

TNZ012-013-036-069-073-074-310500-
CENTRAL EAST TENNESSEE

CITY           SKY/WX    TMP DP  RH WIND       PRES   REMARKS
KNOXVILLE      NOT AVBL
OAK RIDGE      CLEAR     71  64  78 CALM      30.00F
GATLINBURG     CLEAR     64  61  88 CALM      29.99F
$$

TNZ083-085-099-310500-
SOUTHEAST TENNESSEE

CITY           SKY/WX    TMP DP  RH WIND       PRES   REMARKS
CHATTANOOGA    PTCLDY    73  61  65 CALM      29.97S
$$

SKY/WX REPORTED AS FAIR MEANS FEW OR NO CLOUDS BELOW
12 THOUSAND FEET.




USA.gov is the U.S. government's official web portal to all federal, state and local government web resources and services.